Location: Karcze
(52.0945°N, 22.4786°E)
Time: 00:16:03
(UTC+00:00)

A-11 Canister half - Pass Details

Date: 03 August 2021
Orbit: 1515 x 1685 km, 47.2° (Epoch: 19 September)

Event Time Altitude Azimuth Distance (km) Brightness Sun altitude
Rises 16:06:19 0° 242° (WSW) 4,789 12.5 18.1°
Reaches altitude 10° 16:09:25 10° 238° (WSW) 3,828 12.1 17.7°
Maximum altitude 16:18:57 60° 163° (SSE) 1,855 9.6 16.2°
Drops below altitude 10° 16:28:48 10° 87° (E) 3,942 10.6 14.7°
Sets 16:32:02 0° 84° (E) 4,939 11.1 14.2°
